AAL3167 KCLT-KJFK

Flight info

Callsign AAL3167
Flight time 1h 38m
Altitude 39000
Route BARMY5 TYI Q64 SAWED Q108 SIE CAMRN4
Aircraft A319/M-SDE3FGHIRWY/LB1

Departure

Time 2026-05-09 14:08
Airport Charlotte Douglas International Airport (KCLT)

Arrival

Time 2026-05-09 15:46
Airport John F. Kennedy International Airport (KJFK)
Time Latitude Longitude Altitude Speed Heading
2026-05-09 13:49 35.21758 -80.94481 722 ft 0 kts 318°
2026-05-09 13:56 35.21756 -80.94478 720 ft 1 kts 318°
2026-05-09 13:56 35.21745 -80.94467 723 ft 2 kts 318°
2026-05-09 13:56 35.21733 -80.94453 723 ft 2 kts 303°
2026-05-09 13:57 35.21728 -80.94435 721 ft 2 kts 273°
2026-05-09 13:57 35.21727 -80.94416 721 ft 2 kts 266°
2026-05-09 13:57 35.21732 -80.94398 727 ft 2 kts 225°
2026-05-09 13:57 35.21738 -80.94393 729 ft 0 kts 189°
2026-05-09 14:00 35.21675 -80.94387 723 ft 0 kts 169°
2026-05-09 14:01 35.21673 -80.94385 721 ft 2 kts 159°
2026-05-09 14:01 35.21662 -80.94375 721 ft 1 kts 143°
2026-05-09 14:01 35.21638 -80.94330 722 ft 9 kts 101°
2026-05-09 14:02 35.21634 -80.94210 722 ft 15 kts 91°
2026-05-09 14:02 35.21673 -80.94126 723 ft 11 kts 46°
2026-05-09 14:02 35.21724 -80.94058 724 ft 11 kts 48°
2026-05-09 14:02 35.21773 -80.93992 724 ft 11 kts 48°
2026-05-09 14:03 35.21822 -80.93925 725 ft 10 kts 47°
2026-05-09 14:03 35.21868 -80.93860 726 ft 10 kts 49°
2026-05-09 14:03 35.21910 -80.93800 726 ft 9 kts 47°
2026-05-09 14:03 35.21954 -80.93742 725 ft 9 kts 45°
2026-05-09 14:04 35.21997 -80.93712 726 ft 4 kts 10°
2026-05-09 14:04 35.22025 -80.93712 725 ft 5 kts 357°
2026-05-09 14:04 35.22085 -80.93717 727 ft 14 kts 356°
2026-05-09 14:04 35.22227 -80.93729 729 ft 24 kts 355°
2026-05-09 14:05 35.22345 -80.93738 730 ft 12 kts 356°
2026-05-09 14:05 35.22366 -80.93740 730 ft 0 kts 357°
2026-05-09 14:06 35.22385 -80.93736 730 ft 1 kts 30°
2026-05-09 14:06 35.22393 -80.93728 730 ft 4 kts 44°
2026-05-09 14:07 35.22408 -80.93672 730 ft 12 kts 83°
2026-05-09 14:07 35.22371 -80.93602 729 ft 12 kts 172°
2026-05-09 14:07 35.22089 -80.93584 728 ft 83 kts 177°
2026-05-09 14:07 35.21248 -80.93505 923 ft 142 kts 178°
2026-05-09 14:08 35.20265 -80.93488 1907 ft 146 kts 185°
2026-05-09 14:08 35.19145 -80.93393 2462 ft 184 kts 178°
2026-05-09 14:08 35.17734 -80.93215 2792 ft 226 kts 178°
2026-05-09 14:08 35.16063 -80.92979 3646 ft 248 kts 176°
2026-05-09 14:09 35.14320 -80.92668 4908 ft 256 kts 176°
2026-05-09 14:09 35.12514 -80.92296 6035 ft 268 kts 176°
2026-05-09 14:09 35.10651 -80.91894 7015 ft 277 kts 175°
2026-05-09 14:09 35.08762 -80.91165 7364 ft 290 kts 158°
2026-05-09 14:10 35.05772 -80.87618 7836 ft 305 kts 134°
2026-05-09 14:10 35.04435 -80.85594 7959 ft 306 kts 133°
2026-05-09 14:10 35.03168 -80.83555 8585 ft 310 kts 124°
2026-05-09 14:11 35.02449 -80.81038 9635 ft 321 kts 98°
2026-05-09 14:11 35.02610 -80.78302 10523 ft 334 kts 73°
2026-05-09 14:11 35.03640 -80.75669 11044 ft 354 kts 53°
2026-05-09 14:11 35.05094 -80.73139 11673 ft 373 kts 51°
2026-05-09 14:12 35.06624 -80.70483 12323 ft 390 kts 53°
2026-05-09 14:12 35.08130 -80.67673 12967 ft 406 kts 56°
2026-05-09 14:12 35.09616 -80.64644 13621 ft 421 kts 58°
2026-05-09 14:12 35.11049 -80.61469 14226 ft 434 kts 60°
2026-05-09 14:13 35.12452 -80.58135 14616 ft 444 kts 62°
2026-05-09 14:14 35.21352 -80.33713 14994 ft 450 kts 66°
2026-05-09 14:15 35.22550 -80.30170 15008 ft 450 kts 66°
2026-05-09 14:15 35.23736 -80.26632 15014 ft 451 kts 66°
2026-05-09 14:15 35.24920 -80.23076 15040 ft 451 kts 66°
2026-05-09 14:15 35.26087 -80.19543 15398 ft 452 kts 66°
2026-05-09 14:16 35.27274 -80.15921 16166 ft 455 kts 66°
2026-05-09 14:16 35.28439 -80.12351 16828 ft 462 kts 66°
2026-05-09 14:16 35.29635 -80.08672 17511 ft 468 kts 66°
2026-05-09 14:16 35.30844 -80.04946 18186 ft 474 kts 66°
2026-05-09 14:17 35.32063 -80.01178 18778 ft 479 kts 66°
2026-05-09 14:17 35.33299 -79.97351 19352 ft 484 kts 66°
2026-05-09 14:17 35.34539 -79.93512 19975 ft 488 kts 66°
2026-05-09 14:17 35.35791 -79.89620 20541 ft 492 kts 66°
2026-05-09 14:18 35.37046 -79.85693 21086 ft 497 kts 66°
2026-05-09 14:18 35.38280 -79.81731 21601 ft 502 kts 66°
2026-05-09 14:18 35.39491 -79.77700 22132 ft 506 kts 67°
2026-05-09 14:18 35.40696 -79.73615 22632 ft 511 kts 67°
2026-05-09 14:19 35.41898 -79.69487 23124 ft 516 kts 68°
2026-05-09 14:19 35.43100 -79.65324 23609 ft 520 kts 68°
2026-05-09 14:19 35.44311 -79.61118 24005 ft 524 kts 68°
2026-05-09 14:19 35.45526 -79.56887 24388 ft 528 kts 68°
2026-05-09 14:20 35.46751 -79.52618 24750 ft 533 kts 68°
2026-05-09 14:20 35.47979 -79.48328 25126 ft 537 kts 68°
2026-05-09 14:20 35.49220 -79.43991 25501 ft 541 kts 68°
2026-05-09 14:21 35.51728 -79.35216 26063 ft 552 kts 68°
2026-05-09 14:21 35.52997 -79.30759 26404 ft 557 kts 68°
2026-05-09 14:21 35.54273 -79.26266 26849 ft 558 kts 68°
2026-05-09 14:21 35.55553 -79.21741 27324 ft 559 kts 68°
2026-05-09 14:22 35.56826 -79.17229 27795 ft 560 kts 68°
2026-05-09 14:22 35.58104 -79.12688 28257 ft 562 kts 68°
2026-05-09 14:22 35.58973 -79.09621 28573 ft 562 kts 67°
2026-05-09 14:22 35.60684 -79.03607 29214 ft 564 kts 67°
2026-05-09 14:23 35.61545 -79.00586 29554 ft 564 kts 67°
2026-05-09 14:23 35.62839 -78.96042 30045 ft 565 kts 67°
2026-05-09 14:23 35.64133 -78.91491 30472 ft 566 kts 67°
2026-05-09 14:23 35.65435 -78.86906 30891 ft 566 kts 67°
2026-05-09 14:24 35.66735 -78.82319 31311 ft 567 kts 67°
2026-05-09 14:24 35.68027 -78.77753 31727 ft 568 kts 67°
2026-05-09 14:24 35.69327 -78.73144 32145 ft 568 kts 67°
2026-05-09 14:24 35.70615 -78.68567 32559 ft 569 kts 67°
2026-05-09 14:25 35.71908 -78.63962 33077 ft 569 kts 66°
2026-05-09 14:25 35.73195 -78.59354 33576 ft 569 kts 66°
2026-05-09 14:25 35.74472 -78.54778 33985 ft 570 kts 66°
2026-05-09 14:25 35.75759 -78.50163 34349 ft 570 kts 66°
2026-05-09 14:26 35.77047 -78.45542 34715 ft 570 kts 66°
2026-05-09 14:26 35.78338 -78.40905 35097 ft 570 kts 66°
2026-05-09 14:26 35.79623 -78.36282 35460 ft 570 kts 66°
2026-05-09 14:26 35.80903 -78.31668 35823 ft 571 kts 66°
2026-05-09 14:27 35.82181 -78.27051 36196 ft 571 kts 66°
2026-05-09 14:27 35.83462 -78.22416 36562 ft 571 kts 66°
2026-05-09 14:27 35.84730 -78.17819 36929 ft 571 kts 66°
2026-05-09 14:27 35.86022 -78.13126 37300 ft 571 kts 66°
2026-05-09 14:28 35.87276 -78.08562 37664 ft 571 kts 65°
2026-05-09 14:28 35.88546 -78.03933 38013 ft 571 kts 65°
2026-05-09 14:28 35.89819 -77.99282 38418 ft 572 kts 66°
2026-05-09 14:28 35.91091 -77.94635 38742 ft 565 kts 66°
2026-05-09 14:29 35.92335 -77.90075 38878 ft 557 kts 66°
2026-05-09 14:29 35.93564 -77.85563 38948 ft 558 kts 66°
2026-05-09 14:29 35.96057 -77.76402 38998 ft 566 kts 66°
2026-05-09 14:30 35.97476 -77.71870 38987 ft 558 kts 55°
2026-05-09 14:30 35.99521 -77.67919 38986 ft 540 kts 42°
2026-05-09 14:30 36.04332 -77.61010 39003 ft 528 kts 36°
2026-05-09 14:31 36.09325 -77.54377 39004 ft 528 kts 35°
2026-05-09 14:31 36.14377 -77.47751 39033 ft 527 kts 36°
2026-05-09 14:32 36.19367 -77.41149 39017 ft 524 kts 36°
2026-05-09 14:32 36.24339 -77.34518 39018 ft 527 kts 36°
2026-05-09 14:33 36.29334 -77.27827 39019 ft 526 kts 34°
2026-05-09 14:33 36.34544 -77.21583 39030 ft 519 kts 31°
2026-05-09 14:34 36.39840 -77.15571 39019 ft 519 kts 30°
2026-05-09 14:34 36.45194 -77.09558 39015 ft 519 kts 30°
2026-05-09 14:35 36.50543 -77.03557 39008 ft 518 kts 30°
2026-05-09 14:35 36.55904 -76.97553 39028 ft 520 kts 31°
2026-05-09 14:36 36.61312 -76.91481 39024 ft 522 kts 31°
2026-05-09 14:36 36.66680 -76.85420 39011 ft 521 kts 31°
2026-05-09 14:37 36.72040 -76.79354 39019 ft 521 kts 31°
2026-05-09 14:37 36.77426 -76.73275 39051 ft 522 kts 32°
2026-05-09 14:38 36.82780 -76.67194 39024 ft 519 kts 32°
2026-05-09 14:38 36.88138 -76.61093 39021 ft 521 kts 32°
2026-05-09 14:39 36.93449 -76.55035 39010 ft 522 kts 32°
2026-05-09 14:39 36.98821 -76.48923 38995 ft 520 kts 33°
2026-05-09 14:40 37.04145 -76.42819 38995 ft 522 kts 33°
2026-05-09 14:40 37.09515 -76.36657 39017 ft 524 kts 33°
2026-05-09 14:41 37.14862 -76.30503 39000 ft 522 kts 33°
2026-05-09 14:41 37.20209 -76.24354 39015 ft 519 kts 33°
2026-05-09 14:42 37.25526 -76.18214 39008 ft 519 kts 34°
2026-05-09 14:42 37.30842 -76.12057 38998 ft 521 kts 33°
2026-05-09 14:43 37.36203 -76.05837 39063 ft 524 kts 34°
2026-05-09 14:43 37.41506 -75.99689 39026 ft 518 kts 34°
2026-05-09 14:44 37.46783 -75.93525 39018 ft 517 kts 34°
2026-05-09 14:44 37.52137 -75.87463 39010 ft 513 kts 28°
2026-05-09 14:45 37.57987 -75.82480 39015 ft 505 kts 22°
2026-05-09 14:45 37.63956 -75.77869 39009 ft 501 kts 21°
2026-05-09 14:46 37.69969 -75.73348 39017 ft 504 kts 20°
2026-05-09 14:46 37.75997 -75.68839 39018 ft 504 kts 20°
2026-05-09 14:47 37.82022 -75.64291 39021 ft 502 kts 22°
2026-05-09 14:47 37.87878 -75.59476 39018 ft 504 kts 24°
2026-05-09 14:48 37.93691 -75.54482 39014 ft 507 kts 25°
2026-05-09 14:48 37.99474 -75.49424 39054 ft 507 kts 26°
2026-05-09 14:49 38.05317 -75.44361 39013 ft 501 kts 25°
2026-05-09 14:49 38.11099 -75.39561 38999 ft 502 kts 24°
2026-05-09 14:50 38.17023 -75.34730 39004 ft 506 kts 24°
2026-05-09 14:50 38.22957 -75.29997 39014 ft 495 kts 17°
2026-05-09 14:51 38.26114 -75.28479 39003 ft 476 kts
2026-05-09 14:51 38.29294 -75.27467 39009 ft 471 kts
2026-05-09 14:51 38.35707 -75.25879 39018 ft 469 kts 359°
2026-05-09 14:52 38.42159 -75.24509 39059 ft 468 kts 358°
2026-05-09 14:52 38.48547 -75.23213 39020 ft 467 kts 359°
2026-05-09 14:53 38.54981 -75.21881 38756 ft 468 kts 359°
2026-05-09 14:53 38.58188 -75.21207 37974 ft 467 kts 359°
2026-05-09 14:53 38.61395 -75.20533 36877 ft 468 kts 359°
2026-05-09 14:54 38.64609 -75.19857 35833 ft 468 kts 359°
2026-05-09 14:54 38.67844 -75.19061 34707 ft 478 kts
2026-05-09 14:54 38.70951 -75.17343 33537 ft 498 kts 22°
2026-05-09 14:54 38.73877 -75.14961 32666 ft 494 kts 27°
2026-05-09 14:55 38.75683 -75.13349 32111 ft 490 kts 29°
2026-05-09 15:11 38.76052 -75.13014 31651 ft 489 kts 32°
2026-05-09 15:11 38.78785 -75.10499 31142 ft 481 kts 31°
2026-05-09 15:11 38.81453 -75.07930 30303 ft 474 kts 32°
2026-05-09 15:11 38.84061 -75.05382 29442 ft 467 kts 33°
2026-05-09 15:12 38.85757 -75.03706 28813 ft 463 kts 33°
2026-05-09 15:12 38.88290 -75.01194 27931 ft 455 kts 33°
2026-05-09 15:12 38.90767 -74.98731 27074 ft 448 kts 33°
2026-05-09 15:12 38.93211 -74.96299 26256 ft 441 kts 33°
2026-05-09 15:13 38.95629 -74.93892 25454 ft 435 kts 33°
2026-05-09 15:13 38.97998 -74.91535 24680 ft 428 kts 33°
2026-05-09 15:13 39.00338 -74.89210 23915 ft 422 kts 33°
2026-05-09 15:13 39.02650 -74.86913 23083 ft 417 kts 33°
2026-05-09 15:14 39.04933 -74.84642 23053 ft 416 kts 33°
2026-05-09 15:14 39.07248 -74.82329 23020 ft 420 kts 34°
2026-05-09 15:14 39.09412 -74.80089 23002 ft 384 kts 35°
2026-05-09 15:14 39.11543 -74.77852 23003 ft 407 kts 35°
2026-05-09 15:15 39.13788 -74.75484 23000 ft 421 kts 36°
2026-05-09 15:15 39.16039 -74.73085 22871 ft 416 kts 36°
2026-05-09 15:15 39.18240 -74.70721 22104 ft 411 kts 36°
2026-05-09 15:15 39.20431 -74.68355 21237 ft 407 kts 36°
2026-05-09 15:16 39.22583 -74.66023 20437 ft 401 kts 36°
2026-05-09 15:16 39.24674 -74.63749 19679 ft 397 kts 36°
2026-05-09 15:16 39.26783 -74.61451 18912 ft 392 kts 36°
2026-05-09 15:16 39.28843 -74.59207 18161 ft 387 kts 35°
2026-05-09 15:17 39.30905 -74.56968 17302 ft 383 kts 36°
2026-05-09 15:17 39.32950 -74.54762 16441 ft 380 kts 36°
2026-05-09 15:17 39.34970 -74.52581 15672 ft 376 kts 37°
2026-05-09 15:17 39.36932 -74.50452 15236 ft 362 kts 37°
2026-05-09 15:18 39.38795 -74.48418 14875 ft 349 kts 37°
2026-05-09 15:18 39.40642 -74.46406 14295 ft 345 kts 38°
2026-05-09 15:18 39.42477 -74.44412 13701 ft 343 kts 38°
2026-05-09 15:18 39.44293 -74.42436 13113 ft 338 kts 38°
2026-05-09 15:19 39.46076 -74.40492 12506 ft 333 kts 38°
2026-05-09 15:19 39.47842 -74.38563 11932 ft 329 kts 39°
2026-05-09 15:19 39.49571 -74.36671 11446 ft 333 kts 39°
2026-05-09 15:19 39.51327 -74.34747 11205 ft 324 kts 39°
2026-05-09 15:20 39.53034 -74.32868 11091 ft 322 kts 39°
2026-05-09 15:20 39.56450 -74.29105 11014 ft 321 kts 39°
2026-05-09 15:20 39.58160 -74.27226 11015 ft 323 kts 39°
2026-05-09 15:21 39.59880 -74.25338 11013 ft 322 kts 39°
2026-05-09 15:21 39.61562 -74.23490 11005 ft 322 kts 39°
2026-05-09 15:21 39.63290 -74.21589 11009 ft 323 kts 39°
2026-05-09 15:21 39.64990 -74.19718 11009 ft 322 kts 39°
2026-05-09 15:22 39.66700 -74.17837 11003 ft 322 kts 39°
2026-05-09 15:22 39.68409 -74.15959 11011 ft 323 kts 39°
2026-05-09 15:22 39.70123 -74.14071 10996 ft 322 kts 39°
2026-05-09 15:22 39.71826 -74.12194 11002 ft 323 kts 39°
2026-05-09 15:23 39.73541 -74.10303 10998 ft 322 kts 39°
2026-05-09 15:23 39.75229 -74.08436 10999 ft 322 kts 39°
2026-05-09 15:23 39.76963 -74.06518 11008 ft 323 kts 39°
2026-05-09 15:23 39.78656 -74.04643 11009 ft 313 kts 39°
2026-05-09 15:24 39.80309 -74.02809 11026 ft 315 kts 39°
2026-05-09 15:24 39.82025 -74.01019 11012 ft 315 kts 35°
2026-05-09 15:24 39.83811 -73.99383 11013 ft 314 kts 32°
2026-05-09 15:24 39.85653 -73.97836 11010 ft 315 kts 30°
2026-05-09 15:25 39.87504 -73.96368 11011 ft 313 kts 29°
2026-05-09 15:25 39.89395 -73.94931 10706 ft 311 kts 28°
2026-05-09 15:25 39.91261 -73.93535 10184 ft 309 kts 30°
2026-05-09 15:26 39.94937 -73.90780 9066 ft 303 kts 28°
2026-05-09 15:26 39.96803 -73.89434 8516 ft 303 kts 28°
2026-05-09 15:26 39.98623 -73.88143 8234 ft 302 kts 27°
2026-05-09 15:26 40.00419 -73.86867 8352 ft 287 kts 27°
2026-05-09 15:27 40.02192 -73.85600 8153 ft 288 kts 27°
2026-05-09 15:27 40.03917 -73.84361 8072 ft 284 kts 27°
2026-05-09 15:27 40.05656 -73.83114 7867 ft 283 kts 27°
2026-05-09 15:27 40.07377 -73.81879 7409 ft 282 kts 27°
2026-05-09 15:28 40.09098 -73.80642 6957 ft 280 kts 27°
2026-05-09 15:28 40.10799 -73.79424 6503 ft 279 kts 27°
2026-05-09 15:28 40.12503 -73.78203 6051 ft 277 kts 27°
2026-05-09 15:28 40.14190 -73.76990 5585 ft 276 kts 27°
2026-05-09 15:29 40.15866 -73.75777 5128 ft 275 kts 27°
2026-05-09 15:29 40.17510 -73.74581 4661 ft 273 kts 27°
2026-05-09 15:29 40.19191 -73.73354 4296 ft 274 kts 27°
2026-05-09 15:29 40.20838 -73.72139 4133 ft 269 kts 27°
2026-05-09 15:30 40.22462 -73.70940 4072 ft 271 kts 27°
2026-05-09 15:30 40.24113 -73.69718 4040 ft 271 kts 27°
2026-05-09 15:30 40.25754 -73.68510 4026 ft 273 kts 27°
2026-05-09 15:30 40.27388 -73.67302 4015 ft 270 kts 27°
2026-05-09 15:31 40.29042 -73.66076 4012 ft 272 kts 27°
2026-05-09 15:31 40.30697 -73.64853 4006 ft 272 kts 27°
2026-05-09 15:31 40.32342 -73.63640 4008 ft 273 kts 27°
2026-05-09 15:31 40.33988 -73.62439 4005 ft 273 kts 27°
2026-05-09 15:32 40.35664 -73.61216 4007 ft 272 kts 27°
2026-05-09 15:32 40.37294 -73.60023 4002 ft 272 kts 27°
2026-05-09 15:32 40.38936 -73.58817 4009 ft 270 kts 27°
2026-05-09 15:32 40.40596 -73.57585 4002 ft 271 kts 27°
2026-05-09 15:33 40.42223 -73.56382 4004 ft 270 kts 27°
2026-05-09 15:33 40.43878 -73.55159 4004 ft 270 kts 27°
2026-05-09 15:33 40.45514 -73.53955 4004 ft 270 kts 27°
2026-05-09 15:33 40.47144 -73.52757 4005 ft 270 kts 27°
2026-05-09 15:34 40.48777 -73.51551 4005 ft 270 kts 27°
2026-05-09 15:34 40.50424 -73.50339 4007 ft 271 kts 27°
2026-05-09 15:34 40.52066 -73.49129 4005 ft 269 kts 27°
2026-05-09 15:34 40.53700 -73.47925 4010 ft 271 kts 27°
2026-05-09 15:35 40.55348 -73.46714 4010 ft 269 kts 27°
2026-05-09 15:35 40.56991 -73.45500 4007 ft 270 kts 27°
2026-05-09 15:35 40.58628 -73.44285 4016 ft 270 kts 27°
2026-05-09 15:35 40.60258 -73.43073 3790 ft 267 kts 27°
2026-05-09 15:36 40.62002 -73.41774 3369 ft 324 kts 27°
2026-05-09 15:36 40.64147 -73.40202 3167 ft 391 kts 27°
2026-05-09 15:36 40.66640 -73.38388 3074 ft 389 kts 27°
2026-05-09 15:36 40.68804 -73.36650 3040 ft 349 kts 30°
2026-05-09 15:37 40.70846 -73.35181 2948 ft 315 kts 22°
2026-05-09 15:37 40.72789 -73.34215 2801 ft 289 kts 12°
2026-05-09 15:37 40.74693 -73.33810 2692 ft 261 kts 355°
2026-05-09 15:37 40.76438 -73.34030 2862 ft 251 kts 340°
2026-05-09 15:38 40.78022 -73.34808 2953 ft 236 kts 326°
2026-05-09 15:38 40.79188 -73.36203 2892 ft 221 kts 294°
2026-05-09 15:38 40.79662 -73.38093 2751 ft 212 kts 277°
2026-05-09 15:38 40.79919 -73.39988 2812 ft 211 kts 274°
2026-05-09 15:39 40.80125 -73.41910 2997 ft 212 kts 273°
2026-05-09 15:39 40.80331 -73.43833 3132 ft 209 kts 273°
2026-05-09 15:39 40.80538 -73.45753 3064 ft 215 kts 273°
2026-05-09 15:39 40.80743 -73.47672 2928 ft 207 kts 273°
2026-05-09 15:40 40.80951 -73.49576 2931 ft 210 kts 274°
2026-05-09 15:40 40.81208 -73.51464 2857 ft 211 kts 275°
2026-05-09 15:40 40.81496 -73.53371 2463 ft 213 kts 276°
2026-05-09 15:40 40.81788 -73.55317 2210 ft 214 kts 276°
2026-05-09 15:41 40.82075 -73.57195 2083 ft 210 kts 277°
2026-05-09 15:41 40.82366 -73.59121 2028 ft 212 kts 276°
2026-05-09 15:41 40.82316 -73.60979 1991 ft 206 kts 248°
2026-05-09 15:41 40.81679 -73.62696 1985 ft 208 kts 240°
2026-05-09 15:42 40.80955 -73.64324 1978 ft 208 kts 237°
2026-05-09 15:42 40.80217 -73.65916 1996 ft 214 kts 237°
2026-05-09 15:42 40.79424 -73.67560 1986 ft 208 kts 237°
2026-05-09 15:42 40.78486 -73.68968 1976 ft 207 kts 216°
2026-05-09 15:43 40.77233 -73.69889 1977 ft 207 kts 209°
2026-05-09 15:43 40.75932 -73.70724 1975 ft 209 kts 208°
2026-05-09 15:43 40.74584 -73.71486 2043 ft 211 kts 204°
2026-05-09 15:43 40.73195 -73.72084 1895 ft 205 kts 199°
2026-05-09 15:44 40.71873 -73.72577 1728 ft 186 kts 200°
2026-05-09 15:44 40.70723 -73.73056 1692 ft 164 kts 200°
2026-05-09 15:44 40.69632 -73.73464 1415 ft 159 kts 199°
2026-05-09 15:44 40.68616 -73.73639 1336 ft 137 kts 187°
2026-05-09 15:45 40.67633 -73.73726 1121 ft 145 kts 189°
2026-05-09 15:45 40.66663 -73.73990 700 ft 140 kts 198°
2026-05-09 15:45 40.65762 -73.74545 475 ft 143 kts 206°
2026-05-09 15:45 40.64888 -73.75215 216 ft 144 kts 207°
2026-05-09 15:46 40.64050 -73.75844 23 ft 121 kts 206°
2026-05-09 15:46 40.63609 -73.76184 25 ft 34 kts 212°
2026-05-09 15:46 40.63429 -73.76321 28 ft 23 kts 218°
2026-05-09 15:46 40.63322 -73.76449 22 ft 18 kts 229°
2026-05-09 15:47 40.63265 -73.76566 21 ft 13 kts 239°
2026-05-09 15:47 40.63250 -73.76607 20 ft 0 kts 246°
2026-05-09 15:48 40.63239 -73.76640 20 ft 0 kts 246°
2026-05-09 15:48 40.63236 -73.76652 20 ft 7 kts 252°
2026-05-09 15:48 40.63253 -73.76762 21 ft 19 kts 301°
2026-05-09 15:49 40.63347 -73.76956 20 ft 26 kts 302°
2026-05-09 15:49 40.63430 -73.77144 20 ft 21 kts 302°
2026-05-09 15:49 40.63489 -73.77272 21 ft 7 kts 298°
2026-05-09 15:49 40.63501 -73.77300 22 ft 1 kts 300°
2026-05-09 15:50 40.63507 -73.77314 21 ft 3 kts 300°
2026-05-09 15:50 40.63544 -73.77395 21 ft 18 kts 302°
2026-05-09 15:50 40.63618 -73.77553 21 ft 15 kts 302°
2026-05-09 15:50 40.63663 -73.77644 20 ft 8 kts 287°
2026-05-09 15:51 40.63666 -73.77681 20 ft 1 kts 265°
2026-05-09 15:51 40.63661 -73.77696 22 ft 4 kts 246°
2026-05-09 15:51 40.63650 -73.77713 24 ft 5 kts 214°
2026-05-09 15:51 40.63565 -73.77786 20 ft 19 kts 211°
2026-05-09 15:52 40.63557 -73.77793 20 ft 0 kts 210°
2026-05-09 15:53 40.63546 -73.77831 22 ft 4 kts 266°
2026-05-09 15:53 40.63613 -73.77892 24 ft 19 kts 354°
2026-05-09 15:53 40.63732 -73.77908 22 ft 14 kts 354°
2026-05-09 15:53 40.63814 -73.77919 24 ft 9 kts 353°
2026-05-09 15:54 40.63869 -73.77928 21 ft 7 kts 351°
2026-05-09 15:54 40.63907 -73.77936 21 ft 4 kts 352°
2026-05-09 15:54 40.63938 -73.77942 21 ft 6 kts 352°
2026-05-09 15:54 40.63988 -73.77951 20 ft 10 kts 352°
2026-05-09 15:55 40.64031 -73.77965 23 ft 11 kts 338°
2026-05-09 15:55 40.64102 -73.78016 22 ft 10 kts 330°
2026-05-09 15:55 40.64149 -73.78051 23 ft 6 kts 328°
2026-05-09 15:56 40.64160 -73.78064 23 ft 2 kts 310°
2026-05-09 15:56 40.64173 -73.78091 24 ft 7 kts 291°
2026-05-09 15:56 40.64177 -73.78149 22 ft 8 kts 272°
2026-05-09 15:56 40.64178 -73.78185 20 ft 0 kts 272°